Flag for Canada Weather past 2 weeks in Gatineau, Quebec, Canada

Now
66 °F

Partly sunny.


Feels Like: 66 °F
Forecast: 51 / 78 °F
Wind: 6 mph from South

Location: Ottawa Int'L. Ont.

Current Time: Jul 3, 2015 at 9:48:50 PM

Latest Report: Jul 3, 2015 at 9:00 PM


Visibility: 15 mi

Pressure: 29.93 "Hg

Humidity: 56%

Dew point: 50 °F

Location of GatineauLocation

Historic Weather in Gatineau — Graph

°F

Gatineau temperature yesterday

Maximum temperature yesterday: 72 °F (at 3:00 PM)
Minimum temperature yesterday: 50 °F (at 5:00 AM)
Average temperature yesterday: 62 °F

Past Weeks' High & Low Weather Summary

 TemperatureHumidityPressure
High82 °F (Jun 23, 2:00 PM)100% (Jun 18, 9:00 PM)30.16 "Hg (Jun 18, 9:00 PM)
Low46 °F (Jun 20, 4:00 AM)31% (Jun 26, 5:00 PM)29.52 "Hg (Jun 23, 1:00 PM)
Average65 °F72%29.90 "Hg
* Reported Jun 18 9:00 PM — Jul 3 9:00 PM, Gatineau, Weather by CustomWeather, © 2015

Note: Actual official high and low records may vary slightly from our data, if they occured in-between our weather recording intervals... More about our weather records

Advertising

Gatineau weather history for previous 24 hours

 ConditionsComfort  
Time TempWeatherWind HumidityBarometerVisibility
9:00 PM
Fri, Jul 3
66 °FPartly sunny.6 mph56%29.93 "Hg15 mi
8:00 PM70 °FPartly sunny.9 mph50%29.93 "Hg15 mi
7:00 PM73 °FPartly sunny.10 mph41%29.93 "Hg15 mi
6:00 PM75 °FPartly sunny.10 mph39%29.93 "Hg15 mi
5:00 PM75 °FPassing clouds.10 mph36%29.93 "Hg15 mi
4:00 PM77 °FScattered clouds.8 mph34%29.94 "Hg15 mi
3:00 PM75 °FScattered clouds.6 mph34%29.95 "Hg15 mi
2:00 PM75 °FPassing clouds.8 mph36%29.96 "Hg15 mi
1:00 PM75 °FPassing clouds.10 mph34%29.97 "Hg15 mi
12:00 PM73 °FPassing clouds.9 mph38%29.98 "Hg15 mi
11:00 AM72 °FPassing clouds.8 mph41%29.98 "Hg15 mi
10:00 AM70 °FPassing clouds.7 mph46%29.98 "Hg15 mi
9:00 AM64 °FPassing clouds.7 mph56%30.00 "Hg15 mi
8:00 AM61 °FPassing clouds.6 mph72%29.99 "Hg15 mi
7:00 AM55 °FPassing clouds.6 mph82%29.98 "Hg15 mi
6:00 AM50 °FPassing clouds.3 mph94%29.96 "Hg15 mi
5:00 AM50 °FPassing clouds.5 mph94%29.95 "Hg15 mi
4:00 AM52 °FPassing clouds.5 mph82%29.94 "Hg15 mi
3:00 AM52 °FPartly cloudy.5 mph82%29.94 "Hg15 mi
2:00 AM52 °FPassing clouds.5 mph82%29.94 "Hg15 mi
1:00 AM54 °FPassing clouds.5 mph77%29.94 "Hg15 mi
12:00 AM55 °FClear.6 mph72%29.93 "Hg15 mi
11:00 PM
Thu, Jul 2
59 °FClear.5 mph63%29.93 "Hg15 mi
10:00 PM61 °FPassing clouds.5 mph55%29.94 "Hg15 mi
9:00 PM63 °FPassing clouds.6 mph52%29.93 "Hg15 mi
Weather by CustomWeather, © 2015

See weather overviewHow to use our weather pages